Location: Boitzum
(52.1496°N, 9.6943°E)
Time: 23:53:23
(UTC+00:00)

USA 32 - Pass Details

Date: 13 January 2026
Orbit: 774 x 780 km, 85.0° (Epoch: 18 February)

Event Time Altitude Azimuth Distance (km) Brightness Sun altitude
Rises 05:35:54 0° 182° (S) 3,254 7.4 -15.9°
Reaches altitude 10° 05:38:14 10° 181° (S) 2,331 6.7 -15.6°
Maximum altitude 05:43:28 83° 96° (E) 794 4.1 -14.8°
Drops below altitude 10° 05:48:45 10° 8° (N) 2,348 6.4 -14.0°
Sets 05:51:07 0° 8° (N) 3,280 7.2 -13.7°
